Total_Precipitation_Accumulation
0.00 0.00 0.00 0.00 0.00 0.00 0.00 0.00 0.00 0.00 0.00 0.00 0.00 0.00 0.00 0.00 0.00 0.00 0.01 0.00 0.00 0.02 0.02 0.00 0.00 0.00 0.00 0.02 0.06 0.01 0.02 0.02 0.01 0.00 0.00 0.00 0.00 0.00 0.00 0.00 0.02 0.03 0.01 0.02 0.02 0.02 0.03 0.04 0.02
0.00 0.00 0.00 0.00 0.00 0.00 0.00 0.00 0.00 0.00 0.00 0.00 0.00 0.00 0.00 0.00 0.00 0.00 0.00 0.00 0.04 0.05 0.03 0.02 0.01 0.00 0.01 0.10 0.38 0.60 0.34 0.25 0.04 0.00 0.01 0.02 0.01 0.00 0.00 0.01 0.03 0.02 0.02 0.02 0.02 0.04 0.05 0.05 0.04
0.00 0.00 0.00 0.00 0.00 0.00 0.00 0.00 0.00 0.00 0.00 0.00 0.00 0.00 0.00 0.00 0.00 0.00 0.00 0.00 0.02 0.08 0.10 0.16 0.16 0.01 0.00 0.09 0.42 1.05 1.67 1.75 0.97 0.41 0.35 0.31 0.22 0.13 0.05 0.04 0.05 0.03 0.02 0.04 0.05 0.06 0.06 0.03 0.01
0.00 0.00 0.00 0.00 0.00 0.00 0.00 0.00 0.00 0.00 0.00 0.00 0.00 0.00 0.00 0.00 0.00 0.00 0.00 0.00 0.00 0.05 0.06 0.18 0.14 0.00 0.01 0.25 0.57 0.70 1.60 3.00 3.95 3.98 2.49 1.30 0.83 0.40 0.29 0.22 0.18 0.13 0.06 0.08 0.08 0.08 0.05 0.01 0.00
0.00 0.00 0.00 0.00 0.00 0.00 0.00 0.00 0.00 0.00 0.00 0.00 0.00 0.00 0.00 0.00 0.00 0.00 0.00 0.00 0.00 0.01 0.20 0.36 0.23 0.04 0.02 0.10 0.18 0.32 0.59 1.96 4.51 5.10 3.82 2.50 1.84 1.54 1.02 0.55 0.40 0.28 0.15 0.11 0.09 0.05 0.04 0.02 0.00
0.00 0.00 0.00 0.00 0.00 0.00 0.00 0.00 0.00 0.00 0.00 0.00 0.00 0.00 0.00 0.00 0.00 0.00 0.00 0.00 0.01 0.01 0.04 0.14 0.23 0.12 0.12 0.08 0.12 0.22 0.22 0.42 1.08 2.11 1.88 1.97 2.19 1.52 1.51 1.39 0.79 0.47 0.26 0.14 0.09 0.06 0.03 0.01 0.00
0.00 0.00 0.00 0.00 0.00 0.00 0.00 0.00 0.00 0.00 0.00 0.00 0.00 0.00 0.00 0.00 0.00 0.00 0.00 0.00 0.00 0.00 0.02 0.04 0.16 0.20 0.16 0.06 0.08 0.15 0.30 0.44 0.56 1.02 1.49 1.05 1.60 1.24 1.01 1.29 1.33 0.50 0.15 0.12 0.10 0.06 0.03 0.00 0.00
0.00 0.00 0.00 0.00 0.00 0.00 0.00 0.00 0.00 0.00 0.00 0.00 0.00 0.00 0.00 0.00 0.00 0.00 0.00 0.00 0.00 0.00 0.01 0.02 0.10 0.29 0.13 0.07 0.12 0.15 0.23 0.41 0.79 0.83 1.20 1.42 1.24 1.14 1.02 1.04 1.28 1.01 0.32 0.20 0.15 0.08 0.02 0.00 0.00
0.00 0.00 0.00 0.00 0.00 0.00 0.00 0.00 0.00 0.00 0.00 0.00 0.00 0.00 0.00 0.00 0.00 0.00 0.00 0.00 0.00 0.01 0.01 0.02 0.03 0.15 0.16 0.14 0.19 0.13 0.21 0.38 0.80 1.22 0.97 1.76 1.82 0.90 1.07 1.26 1.01 0.70 0.31 0.19 0.15 0.09 0.03 0.00 0.00
0.00 0.00 0.00 0.00 0.00 0.00 0.00 0.00 0.00 0.00 0.00 0.00 0.00 0.00 0.00 0.00 0.00 0.00 0.00 0.00 0.00 0.00 0.01 0.02 0.03 0.10 0.21 0.18 0.19 0.10 0.21 0.46 0.72 1.90 1.12 1.29 2.23 1.15 1.13 1.58 0.98 0.72 0.42 0.17 0.07 0.03 0.00 0.00 0.00
0.00 0.00 0.00 0.00 0.00 0.00 0.00 0.00 0.00 0.00 0.00 0.00 0.00 0.00 0.00 0.00 0.00 0.00 0.00 0.00 0.00 0.00 0.01 0.02 0.04 0.06 0.13 0.17 0.14 0.14 0.26 0.52 0.78 2.02 1.96 0.76 1.14 1.35 1.38 1.81 1.13 0.60 0.44 0.30 0.15 0.04 0.00 0.00 0.00
0.00 0.00 0.00 0.00 0.00 0.00 0.00 0.00 0.00 0.00 0.00 0.00 0.00 0.00 0.00 0.00 0.00 0.00 0.00 0.00 0.00 0.00 0.01 0.01 0.01 0.06 0.13 0.11 0.14 0.16 0.30 0.46 0.61 0.97 2.16 0.95 0.77 0.92 1.30 1.40 1.01 0.47 0.31 0.12 0.07 0.02 0.00 0.00 0.00
0.00 0.00 0.00 0.00 0.00 0.00 0.00 0.00 0.00 0.00 0.00 0.00 0.00 0.00 0.00 0.00 0.00 0.00 0.00 0.00 0.00 0.00 0.01 0.02 0.01 0.01 0.04 0.09 0.08 0.13 0.49 0.54 0.42 0.49 1.04 0.95 0.82 0.65 1.06 0.90 1.12 0.61 0.38 0.07 0.02 0.03 0.00 0.00 0.00
0.00 0.00 0.00 0.00 0.00 0.00 0.00 0.00 0.00 0.00 0.00 0.00 0.00 0.00 0.00 0.00 0.00 0.00 0.00 0.00 0.00 0.00 0.00 0.01 0.01 0.00 0.00 0.02 0.07 0.23 0.49 0.51 0.36 0.41 0.50 0.55 0.64 0.56 0.74 0.75 0.80 0.77 0.59 0.14 0.02 0.02 0.00 0.00 0.00
0.00 0.00 0.00 0.00 0.00 0.00 0.00 0.00 0.00 0.00 0.00 0.00 0.00 0.00 0.00 0.00 0.00 0.00 0.00 0.00 0.00 0.00 0.00 0.01 0.00 0.00 0.00 0.02 0.07 0.19 0.53 0.49 0.37 0.30 0.31 0.35 0.35 0.41 0.46 0.52 0.63 0.56 0.47 0.10 0.03 0.03 0.01 0.00 0.00
0.00 0.00 0.00 0.00 0.00 0.00 0.00 0.00 0.00 0.00 0.00 0.00 0.00 0.00 0.00 0.00 0.00 0.00 0.00 0.00 0.00 0.00 0.00 0.00 0.00 0.00 0.01 0.03 0.08 0.15 0.32 0.51 0.31 0.20 0.25 0.32 0.27 0.28 0.27 0.52 0.42 0.53 0.38 0.12 0.03 0.02 0.00 0.00 0.00
0.00 0.00 0.00 0.00 0.00 0.00 0.00 0.00 0.00 0.00 0.00 0.00 0.00 0.00 0.00 0.00 0.00 0.00 0.00 0.00 0.00 0.00 0.00 0.01 0.01 0.01 0.02 0.05 0.05 0.11 0.25 0.34 0.29 0.18 0.19 0.26 0.24 0.40 0.31 0.39 0.47 0.44 0.37 0.13 0.06 0.02 0.01 0.00 0.00
0.00 0.00 0.00 0.00 0.00 0.00 0.00 0.00 0.00 0.00 0.00 0.00 0.00 0.00 0.00 0.00 0.00 0.00 0.00 0.00 0.00 0.01 0.01 0.01 0.04 0.05 0.05 0.07 0.09 0.19 0.29 0.32 0.29 0.25 0.19 0.24 0.28 0.27 0.36 0.36 0.44 0.48 0.40 0.10 0.07 0.05 0.01 0.00 0.00
0.00 0.00 0.00 0.00 0.00 0.00 0.00 0.00 0.00 0.00 0.00 0.00 0.00 0.00 0.00 0.00 0.00 0.00 0.00 0.00 0.00 0.01 0.02 0.01 0.08 0.09 0.05 0.10 0.16 0.27 0.33 0.22 0.22 0.30 0.29 0.30 0.38 0.28 0.21 0.30 0.30 0.38 0.26 0.06 0.03 0.05 0.02 0.00 0.00
0.00 0.00 0.00 0.00 0.00 0.00 0.00 0.00 0.00 0.00 0.00 0.00 0.00 0.00 0.00 0.00 0.00 0.00 0.00 0.00 0.00 0.01 0.02 0.02 0.03 0.05 0.08 0.08 0.14 0.17 0.25 0.20 0.17 0.21 0.35 0.33 0.47 0.42 0.24 0.24 0.19 0.22 0.15 0.04 0.02 0.02 0.00 0.00 0.00
0.00 0.00 0.00 0.00 0.00 0.00 0.00 0.00 0.00 0.00 0.00 0.00 0.00 0.00 0.00 0.00 0.00 0.00 0.00 0.00 0.00 0.01 0.01 0.01 0.00 0.01 0.07 0.11 0.23 0.30 0.33 0.22 0.20 0.15 0.20 0.35 0.43 0.49 0.47 0.34 0.20 0.10 0.05 0.02 0.01 0.01 0.00 0.00 0.00
0.00 0.00 0.00 0.00 0.00 0.00 0.00 0.00 0.00 0.00 0.00 0.00 0.00 0.00 0.00 0.00 0.00 0.00 0.00 0.00 0.00 0.00 0.00 0.02 0.01 0.01 0.03 0.06 0.13 0.16 0.15 0.09 0.05 0.03 0.06 0.16 0.41 0.58 0.36 0.45 0.35 0.18 0.04 0.01 0.00 0.00 0.00 0.00 0.00
0.00 0.00 0.00 0.00 0.00 0.00 0.00 0.00 0.00 0.00 0.00 0.00 0.00 0.00 0.00 0.00 0.00 0.00 0.00 0.00 0.00 0.00 0.00 0.01 0.01 0.01 0.01 0.03 0.06 0.13 0.06 0.02 0.04 0.01 0.02 0.08 0.23 0.50 0.56 0.26 0.33 0.18 0.05 0.01 0.01 0.01 0.02 0.02 0.03
0.00 0.00 0.00 0.00 0.00 0.03 0.00 0.00 0.00 0.00 0.00 0.00 0.00 0.00 0.00 0.00 0.00 0.00 0.00 0.00 0.00 0.00 0.00 0.00 0.01 0.02 0.01 0.02 0.02 0.05 0.07 0.03 0.02 0.01 0.00 0.01 0.09 0.25 0.39 0.43 0.31 0.32 0.24 0.10 0.02 0.05 0.03 0.06 0.05
0.00 0.00 0.00 0.02 0.00 0.01 0.00 0.01 0.00 0.00 0.00 0.00 0.00 0.00 0.00 0.00 0.00 0.00 0.00 0.00 0.00 0.00 0.00 0.00 0.01 0.02 0.02 0.02 0.01 0.01 0.03 0.06 0.01 0.00 0.00 0.00 0.02 0.10 0.24 0.34 0.45 0.42 0.38 0.25 0.12 0.06 0.05 0.06 0.08
0.00 0.00 0.00 0.01 0.02 0.04 0.00 0.01 0.00 0.00 0.00 0.00 0.00 0.00 0.00 0.00 0.00 0.00 0.00 0.00 0.00 0.00 0.00 0.00 0.00 0.01 0.01 0.01 0.01 0.01 0.01 0.01 0.01 0.00 0.00 0.00 0.01 0.04 0.09 0.24 0.32 0.40 0.55 0.46 0.27 0.10 0.04 0.05 0.03
0.00 0.00 0.00 0.00 0.01 0.03 0.01 0.02 0.01 0.00 0.00 0.00 0.00 0.00 0.00 0.00 0.00 0.00 0.00 0.00 0.00 0.00 0.00 0.00 0.00 0.00 0.01 0.01 0.01 0.01 0.01 0.01 0.00 0.00 0.00 0.00 0.00 0.04 0.07 0.09 0.24 0.36 0.49 0.44 0.35 0.26 0.14 0.08 0.06
0.00 0.00 0.00 0.00 0.01 0.00 0.00 0.01 0.02 0.01 0.02 0.03 0.01 0.00 0.00 0.00 0.00 0.00 0.00 0.00 0.00 0.00 0.00 0.00 0.00 0.00 0.00 0.01 0.01 0.00 0.01 0.01 0.01 0.00 0.00 0.00 0.00 0.02 0.05 0.03 0.08 0.15 0.24 0.26 0.24 0.23 0.23 0.19 0.13
0.00 0.00 0.00 0.00 0.00 0.00 0.00 0.01 0.02 0.07 0.07 0.12 0.10 0.06 0.02 0.00 0.00 0.00 0.00 0.00 0.00 0.00 0.00 0.01 0.01 0.00 0.01 0.01 0.01 0.01 0.01 0.01 0.01 0.01 0.00 0.00 0.00 0.00 0.01 0.01 0.02 0.07 0.11 0.16 0.18 0.13 0.17 0.20 0.17
0.00 0.00 0.00 0.00 0.00 0.00 0.00 0.00 0.01 0.04 0.06 0.06 0.14 0.17 0.12 0.05 0.01 0.00 0.00 0.00 0.00 0.00 0.00 0.00 0.01 0.02 0.02 0.03 0.03 0.01 0.00 0.00 0.00 0.00 0.00 0.00 0.00 0.00 0.00 0.00 0.01 0.03 0.08 0.12 0.12 0.12 0.15 0.16 0.20